2021-022Q

Last updated on Thu Apr 22 2021 00:02:03 GMT+0000 (Coordinated Universal Time)

1 47946U 21022Q 21111.49079924 .00001610 00000-0 11252-3 0 9999 2 47946 97.5605 14.8185 0019743 132.9327 346.5650 15.06568688 4491

Satellite not in orbit

2021-022Q